GFSWCAN_prec_kuchsnow_258.txt.gz
Snowfall_Accumulation
0.0 0.0 0.0 0.0 0.0 0.0 0.0 0.0 0.0 0.0 0.0 0.0 0.0 0.0 0.0 0.0 0.0 0.0 0.0 0.0 0.0 3.5 0.3 0.0 0.0 0.2 0.4 0.7 3.1 0.4 1.9 0.2 0.3 3.0 3.7 1.8 1.0 1.4 0.9 0.6 0.9 1.9 2.5 0.8 1.1 3.3 2.7 0.0 0.0 1.3 2.3 0.4 0.3 1.0
0.0 0.0 0.0 0.0 0.0 0.0 0.0 0.0 0.0 0.0 0.0 0.0 0.0 0.0 0.0 0.0 0.0 0.0 0.0 0.0 0.0 1.1 0.7 0.0 0.0 0.0 0.0 0.0 0.9 0.9 1.6 2.0 2.7 4.5 3.1 4.0 4.5 2.2 1.2 3.1 0.0 3.3 3.2 5.5 4.4 1.9 0.0 0.0 0.4 0.6 0.8 2.5 1.1 1.7
0.0 0.0 0.0 0.0 0.0 0.0 0.0 0.0 0.0 0.0 0.0 0.0 0.0 0.0 0.0 0.0 0.0 0.0 0.0 0.0 0.0 1.4 0.0 0.0 0.0 0.0 0.0 0.0 0.0 2.2 0.0 0.5 1.3 1.9 6.3 7.2 6.5 2.5 3.7 2.0 1.4 0.0 0.7 1.7 1.7 0.0 0.0 0.0 0.0 0.0 0.0 0.4 0.3 0.8
0.0 0.0 0.0 0.0 0.0 0.0 0.0 0.0 0.0 0.0 0.0 0.0 0.0 0.0 0.0 0.0 0.0 0.0 0.0 0.0 0.0 1.1 13.3 0.4 0.0 0.0 0.0 0.0 0.0 0.0 0.2 0.1 0.1 0.4 8.2 12.1 8.1 1.2 1.2 1.6 2.6 2.6 0.7 1.0 0.9 0.0 0.0 0.0 0.0 0.0 0.0 0.0 0.1 0.1
0.0 0.0 0.0 0.0 0.0 0.0 0.0 0.0 0.0 0.0 0.0 0.0 0.0 0.0 0.0 0.0 0.0 0.0 0.0 0.0 0.0 1.5 7.4 1.2 0.0 0.0 0.0 0.0 0.0 0.0 0.0 0.2 0.6 3.2 8.2 7.3 0.3 2.6 1.8 3.2 6.1 4.5 7.4 8.4 4.3 0.2 5.7 0.8 0.1 0.0 1.4 0.6 0.7 1.8
0.0 0.0 0.0 0.0 0.0 0.0 0.0 0.0 0.0 0.0 0.0 0.0 0.0 0.0 0.0 0.0 0.0 0.0 1.9 0.0 0.0 0.0 9.3 19.3 0.0 0.0 0.0 0.0 0.0 0.0 0.0 0.2 0.0 3.8 4.6 0.2 0.2 6.0 13.7 7.2 2.0 0.8 1.2 5.2 5.8 1.5 0.5 0.0 0.0 0.0 1.3 0.7 1.6 3.0
0.0 0.0 0.0 0.0 0.0 0.0 0.0 0.0 0.0 0.0 0.0 0.0 0.0 0.0 0.0 0.0 0.0 0.9 3.5 0.0 0.0 0.0 16.1 29.8 8.9 0.0 0.0 0.0 0.0 0.0 0.0 0.0 0.2 3.3 4.0 0.9 1.0 9.9 19.9 9.4 0.4 0.0 0.1 0.3 1.1 3.7 0.5 0.0 1.7 0.6 1.3 1.1 0.6 0.4
0.0 0.0 0.0 0.0 0.0 0.0 0.0 0.0 0.0 0.0 0.0 0.0 0.0 0.0 0.0 0.0 0.0 0.0 0.0 0.0 0.0 0.1 6.8 33.9 15.5 2.1 0.0 0.0 1.5 0.0 0.0 0.3 0.8 1.5 1.4 2.3 2.4 7.0 16.3 0.3 0.0 0.3 0.0 0.0 0.2 0.3 1.9 0.4 0.2 0.8 0.3 0.8 0.7 0.2
0.0 0.0 0.0 0.0 0.0 0.0 0.0 0.0 0.0 0.0 0.0 0.0 0.0 0.0 0.0 0.0 0.0 0.0 0.0 0.0 0.0 2.0 36.2 20.8 12.1 8.0 0.1 0.1 0.4 0.9 0.1 9.5 2.0 6.2 6.0 3.3 5.6 10.8 6.4 3.8 1.3 1.1 3.5 3.0 0.2 0.0 0.0 0.3 0.4 0.4 0.6 1.0 1.7 0.9
0.0 0.0 0.0 0.0 0.0 0.0 0.0 0.0 0.0 0.0 0.0 0.0 0.1 3.4 20.8 0.3 0.0 0.0 0.0 2.2 9.2 19.6 15.4 18.1 4.1 7.2 0.3 1.3 5.7 6.8 7.6 10.4 14.7 8.6 5.9 9.0 6.2 1.5 1.0 1.5 2.7 3.1 3.2 3.3 4.7 4.8 3.1 2.4 1.2 1.1 2.0 2.5 4.1 3.6
0.0 0.0 0.0 0.0 0.0 0.0 0.0 0.0 0.0 0.0 0.0 0.1 11.8 15.0 8.9 0.0 3.8 12.8 34.2 37.3 33.0 39.3 18.5 9.8 7.2 5.2 0.5 6.6 7.7 7.4 14.1 10.5 18.2 6.2 8.1 9.8 4.1 0.9 0.1 0.5 0.3 1.1 2.1 3.2 5.5 6.1 6.6 8.1 7.0 4.9 2.3 2.0 2.0 2.8
0.0 0.0 0.0 0.0 0.0 0.0 0.0 0.0 0.0 4.4 7.9 3.5 3.1 5.0 6.6 13.6 28.1 42.3 34.9 17.6 21.4 21.3 13.2 8.3 2.3 0.8 2.9 4.3 13.1 15.3 19.9 14.2 15.9 3.0 11.5 5.8 1.2 0.4 0.4 0.8 1.1 1.5 2.6 3.7 4.9 7.0 6.2 5.9 5.0 4.4 4.3 4.6 4.3 4.4
0.0 0.0 0.0 0.0 0.0 0.0 0.0 0.0 0.0 0.0 0.0 2.8 11.1 29.4 26.4 23.5 35.7 26.5 14.5 8.4 10.3 5.6 3.9 3.9 4.8 2.9 4.9 7.5 17.9 17.6 24.2 17.5 4.7 13.0 3.1 2.3 0.1 0.3 1.3 1.4 1.1 0.4 1.4 2.2 3.8 4.1 4.3 2.9 2.1 3.6 3.5 3.7 4.1 4.2
0.0 0.0 0.0 0.0 0.0 0.0 0.0 0.0 0.0 0.1 7.7 20.8 37.1 45.4 29.6 21.1 9.8 5.0 4.1 4.1 1.4 3.2 3.2 1.7 5.8 7.6 6.5 12.8 10.9 23.0 6.7 10.0 13.9 6.4 2.3 1.0 1.8 2.2 1.7 1.4 2.4 1.8 2.4 3.9 6.1 5.1 3.6 4.0 3.7 3.3 5.2 5.9 6.2 8.0
0.0 0.0 0.0 0.0 0.0 0.0 0.0 0.0 0.1 1.6 9.1 36.8 32.0 29.4 14.8 6.4 4.5 3.7 2.3 3.0 4.5 4.1 4.9 4.5 5.9 6.6 10.2 19.0 14.5 13.4 19.1 10.6 3.6 3.1 2.1 3.6 4.1 4.4 4.9 4.5 4.8 4.1 5.0 7.0 9.3 7.1 6.6 4.6 4.5 6.0 8.3 7.4 6.7 7.3
0.0 0.0 0.0 0.0 0.0 0.0 0.0 0.0 5.3 4.1 18.6 31.0 28.6 17.8 6.3 3.7 5.0 5.3 4.4 5.9 5.7 5.6 5.4 11.5 15.5 17.8 20.6 20.2 19.7 10.1 9.1 5.6 4.9 6.0 6.4 6.4 5.9 5.8 6.4 8.7 11.3 11.8 12.9 12.2 15.5 17.0 13.6 11.0 11.6 11.9 8.8 9.1 8.8 8.3
0.0 0.0 0.0 0.0 0.0 0.0 0.0 3.7 10.4 34.3 40.7 37.1 17.0 7.3 8.4 9.1 9.4 10.2 8.1 8.6 6.1 10.7 12.9 18.1 27.5 17.2 10.7 14.6 6.7 2.9 4.8 4.8 6.6 7.8 8.4 7.4 8.1 8.6 8.2 8.7 12.7 14.6 17.6 14.7 15.7 16.7 18.9 15.9 9.6 4.8 7.8 9.1 7.4 7.0
0.0 0.0 0.0 0.0 0.1 0.3 6.3 6.5 36.2 44.4 43.1 18.7 8.5 5.2 6.1 7.4 7.7 4.6 5.2 5.4 9.7 11.6 12.1 20.4 13.5 17.6 14.7 9.4 5.2 4.8 5.4 5.0 6.6 8.3 10.7 10.4 9.8 11.0 10.3 11.8 12.2 11.7 12.5 11.4 9.4 7.7 6.3 4.3 4.7 6.6 6.8 5.8 4.5 4.6
0.0 0.0 0.0 0.0 0.2 4.7 37.7 46.1 29.9 42.0 16.7 7.6 5.4 4.6 3.9 4.9 3.3 4.1 4.8 5.8 9.3 7.5 10.4 12.9 19.3 14.9 8.0 5.9 6.3 6.1 6.6 7.4 9.1 9.2 10.3 9.4 8.1 7.5 6.4 5.4 5.0 4.4 5.7 5.2 4.0 5.4 4.4 3.3 4.0 3.2 2.9 1.5 1.1 1.1
0.0 0.0 0.0 0.1 0.1 28.1 46.5 39.2 21.1 14.5 8.1 4.7 4.6 3.6 2.6 5.6 4.6 2.4 2.7 3.0 4.0 6.3 16.1 18.4 10.3 10.1 12.1 11.7 10.6 9.7 10.7 10.6 7.8 5.7 6.4 5.2 3.1 1.5 0.7 0.4 0.4 0.1 0.1 0.4 0.4 0.4 0.3 0.3 0.2 0.3 0.5 0.4 0.4 0.8
0.0 0.2 0.2 0.1 8.8 37.2 34.5 24.4 16.9 9.7 5.4 4.3 4.0 2.9 5.1 3.5 4.4 4.5 4.0 2.0 8.0 16.3 14.6 11.8 11.6 12.4 11.5 11.9 12.2 11.2 10.7 5.5 3.5 2.2 1.9 0.9 0.4 0.2 0.0 0.0 0.0 0.0 0.0 0.0 0.0 0.0 0.0 0.8 0.8 0.0 0.0 0.2 0.3 0.5
5.1 0.1 15.5 4.6 57.4 57.2 44.2 20.0 11.2 7.0 5.7 6.8 4.3 3.8 6.5 6.3 4.8 5.9 7.4 11.0 17.5 12.4 11.8 11.3 10.6 10.8 9.1 9.4 7.7 4.8 1.9 0.7 0.5 0.3 0.2 0.3 0.2 0.0 0.0 0.0 0.1 0.0 0.0 0.4 0.3 0.7 0.6 0.9 1.0 0.6 0.3 0.3 0.3 0.4
0.5 7.7 37.1 42.5 57.8 54.3 41.4 12.9 13.2 9.7 8.5 6.7 5.6 7.2 9.6 8.3 5.1 4.6 12.4 13.6 12.0 11.5 10.3 7.8 7.1 5.1 4.2 3.4 1.4 1.1 0.7 0.2 0.0 0.0 0.0 0.0 0.0 0.0 0.0 0.0 0.0 0.2 0.0 0.2 0.2 0.4 0.5 0.4 0.2 0.2 0.3 0.3 0.4 0.1
1.3 44.9 55.9 56.5 43.5 43.1 27.2 22.5 12.3 6.7 8.4 8.1 9.1 9.5 9.1 7.2 7.4 8.8 10.0 5.7 8.4 10.3 9.4 9.9 7.1 4.1 3.0 2.8 2.8 2.3 1.1 0.6 0.2 0.0 0.4 0.1 0.0 0.0 0.1 0.0 0.0 0.1 0.8 0.2 0.2 0.1 0.2 0.2 0.4 0.4 0.3 0.7 0.7 0.4
87.6 92.5 53.3 56.3 33.4 19.9 11.5 8.9 6.3 4.6 3.7 2.7 6.0 7.2 7.7 7.0 8.2 7.9 4.6 5.4 7.5 8.7 10.2 9.7 7.9 5.7 4.6 3.3 2.4 1.7 1.9 1.7 1.7 0.5 1.8 1.3 0.3 0.1 0.1 0.1 0.1 0.0 0.0 0.1 0.4 0.6 0.4 0.4 0.8 0.8 0.7 1.8 2.5 2.1
76.3 46.9 36.7 16.1 8.1 3.3 2.5 1.3 1.2 1.3 1.5 2.4 4.7 4.7 5.8 6.0 7.4 7.5 3.9 5.1 8.4 10.6 10.1 8.1 5.6 3.4 2.5 2.2 2.2 2.1 1.5 1.2 1.3 2.2 1.8 2.8 1.9 2.5 1.1 0.8 0.6 0.2 0.2 1.8 3.1 2.9 1.5 1.4 1.2 0.8 0.9 1.7 2.7 2.9
44.5 25.8 9.8 2.4 0.3 0.0 0.4 0.3 0.5 0.6 2.6 4.0 3.9 4.0 4.5 11.1 6.7 4.3 4.5 6.4 7.7 9.9 9.2 7.6 3.9 3.1 2.6 2.9 3.4 3.4 3.0 2.7 2.3 2.6 1.9 4.3 3.3 1.7 1.8 4.8 5.3 2.6 4.2 4.3 4.7 5.2 5.6 4.6 3.4 2.6 2.4 3.0 2.6 4.6
10.2 2.0 0.8 1.0 0.6 0.1 0.7 1.3 0.7 2.5 2.8 3.0 1.9 4.0 4.8 4.2 3.4 4.0 5.9 7.6 9.3 8.9 8.3 8.2 6.3 4.7 4.3 4.1 4.1 4.7 5.0 4.6 4.5 4.1 5.6 6.2 5.4 4.2 3.2 5.9 7.4 8.0 8.3 7.2 8.5 9.0 9.1 8.5 6.8 5.1 5.4 5.9 4.6 4.0
4.9 2.9 0.6 1.2 1.5 1.3 1.2 1.6 1.8 1.6 1.1 1.9 2.6 2.4 3.4 2.5 3.4 4.5 5.6 7.8 8.7 8.1 8.0 7.7 7.3 6.3 5.9 5.6 6.1 7.0 6.6 5.9 4.6 4.1 3.7 3.5 4.5 5.7 4.3 5.3 7.6 8.9 7.8 7.5 4.4 7.9 11.7 12.4 11.7 11.5 8.7 7.5 6.0 6.4
3.4 2.1 1.8 1.5 1.4 1.9 2.0 1.4 1.2 1.7 1.2 1.3 0.7 0.5 0.5 2.3 4.2 5.3 5.5 6.9 7.9 8.1 8.8 8.4 7.4 7.2 7.2 6.7 6.8 7.6 7.3 7.0 6.0 5.3 9.1 6.4 3.3 5.0 8.0 9.5 9.1 9.0 10.9 10.9 9.1 7.9 6.5 8.6 8.1 7.8 9.3 8.9 8.4 8.0
2.6 1.9 2.0 2.3 2.8 3.3 3.5 3.5 3.2 1.9 1.3 1.0 0.8 0.6 1.3 1.4 4.1 5.1 5.5 6.3 7.4 8.0 8.0 8.2 8.3 8.5 7.8 7.6 8.1 7.2 7.9 7.5 7.6 7.0 7.5 11.3 9.5 9.9 10.4 10.9 11.6 14.2 13.7 11.1 9.5 9.1 8.2 8.1 7.7 7.7 7.4 7.8 6.8 6.0
3.7 3.0 1.7 2.3 4.4 5.6 5.5 5.1 5.0 4.1 3.9 3.3 3.3 2.8 3.1 2.4 1.8 3.6 5.3 5.7 6.1 6.8 7.5 7.5 6.9 7.0 7.0 7.5 7.4 7.2 6.6 8.1 8.7 9.8 11.6 12.3 10.6 10.1 9.4 11.5 12.6 14.9 14.1 12.8 10.9 10.3 10.3 9.6 10.6 9.6 9.5 8.2 7.4 6.8
6.9 4.5 3.5 2.8 4.6 5.4 5.4 4.3 6.8 6.6 5.7 4.9 4.3 3.3 2.8 2.2 2.7 3.5 4.7 4.7 3.9 5.8 6.2 6.6 7.3 6.6 8.4 7.9 7.6 7.3 7.2 9.9 8.6 10.7 14.7 15.3 14.2 16.3 17.2 15.2 12.3 12.0 12.3 11.7 11.1 11.9 12.5 12.1 10.8 9.6 9.0 7.9 7.9 7.0

GFSWCAN_prec_kuchsnow_264.txt.gz
Snowfall_Accumulation
0.0 0.0 0.0 0.0 0.0 0.0 0.0 0.0 0.0 0.0 0.0 0.0 0.0 0.0 0.0 0.0 0.0 0.0 0.0 0.0 0.0 3.5 0.3 0.0 0.0 0.2 0.4 0.7 3.1 0.4 1.9 0.2 0.3 3.0 3.7 1.8 1.0 1.4 0.9 0.6 0.9 1.9 2.5 0.8 1.1 3.3 2.7 0.0 0.0 1.3 2.3 0.4 0.3 1.0
0.0 0.0 0.0 0.0 0.0 0.0 0.0 0.0 0.0 0.0 0.0 0.0 0.0 0.0 0.0 0.0 0.0 0.0 0.0 0.0 0.0 1.1 0.7 0.0 0.0 0.0 0.0 0.0 0.9 0.9 1.6 2.0 2.7 4.5 3.1 4.0 4.5 2.2 1.2 3.1 0.0 3.3 3.2 5.5 4.4 1.9 0.0 0.0 0.4 0.6 0.8 2.5 1.1 1.8
0.0 0.0 0.0 0.0 0.0 0.0 0.0 0.0 0.0 0.0 0.0 0.0 0.0 0.0 0.0 0.0 0.0 0.0 0.0 0.0 0.0 1.4 0.0 0.0 0.0 0.0 0.0 0.0 0.0 2.2 0.0 0.5 1.3 1.9 6.3 7.2 6.5 2.5 3.7 2.0 1.4 0.0 0.7 1.7 1.7 0.0 0.0 0.0 0.0 0.0 0.0 0.4 0.3 0.8
0.0 0.0 0.0 0.0 0.0 0.0 0.0 0.0 0.0 0.0 0.0 0.0 0.0 0.0 0.0 0.0 0.0 0.0 0.0 0.0 0.0 1.1 13.3 0.4 0.0 0.0 0.0 0.0 0.0 0.0 0.2 0.1 0.1 0.4 8.2 12.1 8.1 1.2 1.2 1.6 2.6 2.6 0.7 1.0 0.9 0.0 0.0 0.0 0.0 0.0 0.0 0.0 0.1 0.1
0.0 0.0 0.0 0.0 0.0 0.0 0.0 0.0 0.0 0.0 0.0 0.0 0.0 0.0 0.0 0.0 0.0 0.0 0.0 0.0 0.0 1.5 7.4 1.2 0.0 0.0 0.0 0.0 0.0 0.0 0.0 0.2 0.6 3.2 8.2 7.3 0.3 2.6 1.8 3.2 6.1 4.5 7.4 8.4 4.3 0.2 5.7 0.8 0.1 0.0 1.4 0.6 0.7 1.8
0.0 0.0 0.0 0.0 0.0 0.0 0.0 0.0 0.0 0.0 0.0 0.0 0.0 0.0 0.0 0.0 0.0 0.0 2.1 0.0 0.0 0.0 9.3 19.3 0.0 0.0 0.0 0.0 0.0 0.0 0.0 0.2 0.0 3.8 4.6 0.2 0.2 6.0 13.7 7.2 2.0 0.8 1.2 5.2 5.8 1.5 0.5 0.0 0.0 0.0 1.3 0.7 1.6 3.1
0.0 0.0 0.0 0.0 0.0 0.0 0.0 0.0 0.0 0.0 0.0 0.0 0.0 0.0 0.0 0.0 0.0 1.0 3.7 0.1 0.0 0.0 16.1 29.8 8.9 0.0 0.0 0.0 0.0 0.0 0.0 0.0 0.2 3.3 4.0 0.9 1.0 9.9 19.9 9.4 0.4 0.0 0.1 0.3 1.1 3.7 0.5 0.0 1.7 0.6 1.3 1.1 0.6 0.4
0.0 0.0 0.0 0.0 0.0 0.0 0.0 0.0 0.0 0.0 0.0 0.0 0.0 0.0 0.0 0.0 0.0 0.2 0.1 0.0 0.0 0.1 6.8 33.9 15.5 2.1 0.0 0.0 1.5 0.0 0.0 0.3 1.0 1.7 1.4 2.3 2.4 7.0 16.3 0.3 0.0 0.3 0.0 0.0 0.2 0.3 1.9 0.4 0.2 0.8 0.3 0.8 0.7 0.2
0.0 0.0 0.0 0.0 0.0 0.0 0.0 0.0 0.0 0.0 0.0 0.0 0.0 0.0 0.2 0.2 0.4 0.3 0.0 0.0 0.0 2.0 36.2 20.8 12.1 8.0 0.1 0.1 0.4 0.9 0.1 9.6 2.0 6.3 6.1 3.4 5.6 10.8 6.4 3.8 1.3 1.1 3.5 3.0 0.2 0.0 0.0 0.3 0.4 0.4 0.6 1.0 1.7 0.9
0.0 0.0 0.0 0.0 0.0 0.0 0.0 0.0 0.0 0.0 0.0 0.0 0.3 3.9 21.8 1.0 0.0 0.0 0.1 2.3 9.2 19.6 15.4 18.1 4.1 7.2 0.3 1.3 5.7 6.8 7.6 10.4 14.7 8.6 5.9 9.1 6.2 1.5 1.0 1.5 2.7 3.1 3.2 3.3 4.7 4.8 3.1 2.4 1.2 1.1 2.0 2.5 4.3 3.8
0.0 0.0 0.0 0.0 0.0 0.0 0.0 0.0 0.0 0.0 0.0 0.7 12.6 16.4 9.6 0.2 4.2 13.0 34.4 37.4 33.0 39.3 18.5 9.8 7.2 5.2 0.5 6.6 7.7 7.4 14.1 10.5 18.2 6.2 8.1 9.8 4.1 0.9 0.1 0.5 0.3 1.1 2.1 3.2 5.5 6.1 6.7 8.3 7.1 4.9 2.3 2.0 2.0 2.9
0.0 0.0 0.0 0.0 0.0 0.0 0.0 0.0 0.0 5.7 9.4 4.5 4.3 6.1 7.5 14.2 28.6 42.7 35.1 17.7 21.4 21.3 13.2 8.3 2.3 0.8 2.9 4.3 13.1 15.3 19.9 14.2 15.9 3.0 11.5 5.8 1.2 0.4 0.4 0.8 1.1 1.5 2.6 3.7 4.9 7.0 6.2 5.9 5.0 4.4 4.3 4.6 4.3 4.4
0.0 0.0 0.0 0.0 0.0 0.0 0.0 0.0 0.0 0.0 0.6 3.7 11.9 30.4 27.4 24.4 36.3 26.7 14.6 8.4 10.3 5.6 3.9 3.9 4.8 2.9 4.9 7.5 17.9 17.6 24.2 17.5 4.7 13.0 3.1 2.3 0.1 0.3 1.3 1.4 1.1 0.4 1.4 2.2 3.8 4.1 4.3 2.9 2.1 3.6 3.5 3.7 4.1 4.2
0.0 0.0 0.0 0.0 0.0 0.0 0.0 0.0 0.0 0.3 8.6 22.1 38.2 46.7 30.7 21.7 10.0 5.2 4.1 4.1 1.4 3.2 3.2 1.7 5.8 7.6 6.5 12.8 10.9 23.0 6.7 10.0 13.9 6.4 2.3 1.0 1.8 2.2 1.7 1.4 2.4 1.8 2.4 3.9 6.1 5.1 3.6 4.0 3.7 3.3 5.2 5.9 6.2 8.0
0.0 0.0 0.0 0.0 0.0 0.0 0.0 0.0 0.6 2.6 9.9 37.7 32.9 30.1 15.1 6.5 4.5 3.7 2.4 3.0 4.5 4.1 4.9 4.5 5.9 6.6 10.2 19.0 14.5 13.4 19.1 10.6 3.6 3.1 2.1 3.6 4.1 4.4 4.9 4.5 4.8 4.1 5.0 7.0 9.3 7.1 6.6 4.6 4.5 6.0 8.3 7.4 6.7 7.3
0.0 0.0 0.0 0.0 0.0 0.0 0.0 0.8 6.2 4.9 19.3 31.6 28.9 18.0 6.4 3.7 5.0 5.3 4.4 5.9 5.7 5.6 5.4 11.5 15.5 17.8 20.6 20.2 19.7 10.1 9.1 5.6 4.9 6.0 6.4 6.4 5.9 5.8 6.4 8.7 11.3 11.8 12.9 12.2 15.5 17.0 13.6 11.0 11.6 11.9 8.8 9.1 8.8 8.3
0.0 0.0 0.0 0.0 0.0 0.3 0.5 4.2 11.0 34.7 40.8 37.1 17.3 7.4 8.4 9.1 9.4 10.2 8.1 8.6 6.1 10.7 12.9 18.1 27.5 17.2 10.7 14.6 6.7 2.9 4.8 4.8 6.6 7.8 8.4 7.4 8.1 8.6 8.2 8.7 12.7 14.6 17.6 14.7 15.7 16.7 18.9 15.9 9.6 4.8 7.8 9.1 7.4 7.0
0.0 0.0 0.0 0.0 0.8 1.1 7.1 6.9 36.2 44.4 43.1 19.0 8.7 5.2 6.1 7.4 7.7 4.6 5.2 5.4 9.7 11.6 12.1 20.4 13.5 17.6 14.7 9.4 5.2 4.8 5.4 5.0 6.6 8.3 10.7 10.4 9.8 11.0 10.3 11.8 12.2 11.7 12.5 11.4 9.4 7.7 6.3 4.3 4.7 6.6 6.8 5.8 4.5 4.6
0.0 0.0 0.0 0.1 0.5 5.1 38.3 46.4 29.9 42.1 16.9 7.6 5.5 4.6 3.9 4.9 3.3 4.1 4.8 5.8 9.3 7.5 10.4 12.9 19.3 14.9 8.0 5.9 6.3 6.1 6.6 7.4 9.1 9.2 10.3 9.4 8.1 7.5 6.4 5.4 5.0 4.4 5.7 5.2 4.0 5.4 4.4 3.3 4.0 3.2 2.9 1.5 1.2 1.1
0.0 0.0 0.2 0.3 0.5 28.5 46.6 39.4 21.2 14.5 8.2 4.8 4.6 3.6 2.6 5.6 4.6 2.4 2.7 3.0 4.0 6.3 16.1 18.4 10.3 10.1 12.1 11.7 10.6 9.7 10.7 10.6 7.8 5.7 6.4 5.2 3.1 1.5 0.7 0.4 0.4 0.1 0.1 0.4 0.4 0.5 0.3 0.3 0.2 0.3 0.5 0.5 0.4 0.8
1.5 1.6 1.0 0.5 9.1 37.3 34.5 24.4 16.9 9.7 5.4 4.3 4.0 2.9 5.1 3.5 4.4 4.5 4.0 2.0 8.0 16.3 14.6 11.8 11.6 12.4 11.5 11.9 12.2 11.2 10.7 5.5 3.5 2.2 1.9 0.9 0.4 0.2 0.0 0.0 0.0 0.0 0.1 0.0 0.0 0.0 0.1 0.8 0.8 0.0 0.0 0.2 0.3 0.5
6.2 0.6 15.9 4.8 57.5 57.2 44.3 20.0 11.2 7.0 5.7 6.8 4.3 3.8 6.5 6.3 4.8 5.9 7.4 11.0 17.5 12.4 11.8 11.3 10.6 10.8 9.1 9.4 7.7 4.8 1.9 0.7 0.5 0.3 0.2 0.3 0.2 0.0 0.0 0.0 0.1 0.0 0.0 0.4 0.3 0.7 0.6 0.9 1.0 0.6 0.3 0.3 0.3 0.4
0.9 8.0 37.4 42.7 57.8 54.5 41.4 12.9 13.2 9.7 8.5 6.7 5.6 7.2 9.6 8.3 5.1 4.6 12.4 13.6 12.0 11.5 10.3 7.8 7.1 5.1 4.2 3.4 1.4 1.1 0.7 0.2 0.0 0.0 0.0 0.0 0.0 0.0 0.0 0.0 0.0 0.2 0.0 0.2 0.2 0.4 0.5 0.4 0.2 0.2 0.3 0.3 0.4 0.1
1.7 45.2 55.9 56.5 43.5 43.1 27.2 22.5 12.3 6.7 8.4 8.1 9.1 9.5 9.1 7.2 7.4 8.8 10.0 5.7 8.4 10.3 9.4 9.9 7.1 4.1 3.0 2.8 2.8 2.3 1.1 0.6 0.2 0.0 0.4 0.1 0.0 0.0 0.1 0.0 0.0 0.1 0.8 0.2 0.2 0.1 0.3 0.2 0.5 0.4 0.3 0.7 0.7 0.5
87.8 92.6 53.4 56.3 33.4 19.9 11.5 8.9 6.3 4.6 3.7 2.7 6.0 7.2 7.7 7.0 8.2 7.9 4.6 5.4 7.5 8.7 10.2 9.7 7.9 5.7 4.6 3.3 2.4 1.7 1.9 1.7 1.7 0.5 1.8 1.3 0.3 0.1 0.1 0.1 0.1 0.0 0.0 0.2 0.5 0.7 0.5 0.4 0.9 0.8 0.8 1.9 2.6 2.4
76.4 46.9 36.7 16.1 8.1 3.3 2.5 1.3 1.2 1.3 1.5 2.4 4.7 4.7 5.8 6.0 7.4 7.5 3.9 5.1 8.4 10.6 10.1 8.1 5.6 3.4 2.5 2.2 2.2 2.1 1.5 1.2 1.3 2.2 1.8 2.8 1.9 2.5 1.1 0.8 0.6 0.2 0.2 1.9 3.1 3.0 1.5 1.4 1.2 0.9 1.0 1.8 2.9 3.1
44.5 25.8 9.8 2.4 0.3 0.0 0.4 0.3 0.5 0.6 2.6 4.0 3.9 4.0 4.5 11.1 6.7 4.3 4.5 6.4 7.7 9.9 9.2 7.6 3.9 3.1 2.6 2.9 3.4 3.4 3.0 2.7 2.3 2.6 1.9 4.3 3.3 1.7 1.8 4.8 5.3 2.6 4.2 4.3 4.7 5.3 5.6 4.6 3.4 2.7 2.5 3.1 2.7 4.8
10.2 2.1 0.8 1.0 0.6 0.1 0.7 1.3 0.7 2.5 2.8 3.0 1.9 4.0 4.8 4.2 3.4 4.0 5.9 7.6 9.3 8.9 8.3 8.2 6.3 4.7 4.3 4.1 4.1 4.7 5.0 4.6 4.5 4.1 5.6 6.2 5.4 4.2 3.2 5.9 7.4 8.0 8.5 7.2 8.5 9.0 9.1 8.5 6.9 5.3 5.6 6.1 4.7 4.0
4.9 2.9 0.6 1.2 1.5 1.3 1.2 1.6 1.8 1.6 1.1 1.9 2.6 2.4 3.4 2.5 3.4 4.5 5.6 7.8 8.7 8.1 8.0 7.7 7.3 6.3 5.9 5.6 6.1 7.0 6.6 5.9 4.6 4.1 3.7 3.5 4.5 5.7 4.3 5.3 7.6 8.9 7.8 7.5 4.4 8.2 12.1 12.4 11.9 11.8 8.8 7.6 6.0 6.5
3.4 2.1 1.8 1.5 1.4 1.9 2.0 1.4 1.2 1.7 1.2 1.3 0.7 0.5 0.5 2.3 4.2 5.3 5.5 6.9 7.9 8.1 8.8 8.4 7.4 7.2 7.2 6.7 6.8 7.6 7.3 7.0 6.0 5.3 9.1 6.4 3.3 5.0 8.0 9.5 9.1 9.0 10.9 10.9 9.1 7.9 6.7 8.8 8.2 8.0 9.5 9.0 8.5 8.0
2.6 1.9 2.0 2.3 2.8 3.3 3.5 3.5 3.2 1.9 1.3 1.0 0.8 0.6 1.3 1.4 4.1 5.1 5.5 6.3 7.4 8.0 8.0 8.2 8.3 8.5 7.8 7.6 8.1 7.2 7.9 7.5 7.6 7.0 7.5 11.3 9.5 9.9 10.4 10.9 11.6 14.2 13.8 11.2 9.7 9.2 8.2 8.3 7.9 7.9 7.7 8.0 6.9 6.2
3.7 3.0 1.7 2.3 4.4 5.6 5.5 5.1 5.0 4.1 3.9 3.3 3.3 2.8 3.1 2.4 1.8 3.6 5.3 5.7 6.1 6.8 7.5 7.5 6.9 7.0 7.0 7.5 7.4 7.2 6.6 8.1 8.7 9.8 11.6 12.3 10.6 10.1 9.4 11.5 12.6 15.0 14.2 13.0 11.2 10.6 10.5 9.8 10.8 9.9 9.7 8.4 7.5 6.9
6.9 4.5 3.5 2.8 4.6 5.4 5.4 4.3 6.8 6.6 5.7 4.9 4.3 3.3 2.8 2.2 2.7 3.5 4.7 4.7 3.9 5.8 6.2 6.6 7.3 6.6 8.4 7.9 7.6 7.3 7.2 9.9 8.6 10.7 14.8 15.4 14.4 16.5 17.8 15.6 12.3 12.0 12.3 11.8 11.2 12.1 12.6 12.2 10.9 9.6 9.0 7.9 7.9 7.1

GFSWCAN_prec_kuchsnow_267.txt.gz
Snowfall_Accumulation
0.0 0.0 0.0 0.0 0.0 0.0 0.0 0.0 0.0 0.0 0.0 0.0 0.0 0.0 0.0 0.0 0.0 0.0 0.0 0.0 0.0 3.5 0.3 0.0 0.0 0.2 0.4 0.7 3.1 0.4 1.9 0.2 0.3 3.0 3.7 1.8 1.0 1.4 0.9 0.6 0.9 1.9 2.5 0.8 1.1 3.3 2.7 0.0 0.0 1.3 2.3 0.4 0.3 1.0
0.0 0.0 0.0 0.0 0.0 0.0 0.0 0.0 0.0 0.0 0.0 0.0 0.0 0.0 0.0 0.0 0.0 0.0 0.0 0.0 0.0 1.1 0.7 0.0 0.0 0.0 0.0 0.0 0.9 0.9 1.6 2.0 2.7 4.5 3.1 4.0 4.5 2.2 1.2 3.1 0.0 3.3 3.2 5.5 4.4 1.9 0.0 0.0 0.4 0.6 0.8 2.5 1.1 1.8
0.0 0.0 0.0 0.0 0.0 0.0 0.0 0.0 0.0 0.0 0.0 0.0 0.0 0.0 0.0 0.0 0.0 0.0 0.0 0.0 0.0 1.4 0.0 0.0 0.0 0.0 0.0 0.0 0.0 2.2 0.0 0.5 1.3 1.9 6.3 7.2 6.5 2.5 3.7 2.0 1.4 0.0 0.7 1.7 1.7 0.0 0.0 0.0 0.0 0.0 0.0 0.4 0.3 0.8
0.0 0.0 0.0 0.0 0.0 0.0 0.0 0.0 0.0 0.0 0.0 0.0 0.0 0.0 0.0 0.0 0.0 0.0 0.0 0.0 0.0 1.1 13.3 0.4 0.0 0.0 0.0 0.0 0.0 0.0 0.2 0.1 0.1 0.4 8.2 12.1 8.1 1.2 1.2 1.6 2.6 2.6 0.7 1.0 0.9 0.0 0.0 0.0 0.0 0.0 0.0 0.0 0.1 0.1
0.0 0.0 0.0 0.0 0.0 0.0 0.0 0.0 0.0 0.0 0.0 0.0 0.0 0.0 0.0 0.0 0.0 0.0 0.0 0.0 0.0 1.5 7.7 1.2 0.0 0.0 0.0 0.0 0.0 0.0 0.0 0.2 0.6 3.2 8.2 7.3 0.3 2.6 1.8 3.2 6.1 4.5 7.4 8.4 4.3 0.2 5.7 0.8 0.1 0.0 1.4 0.6 0.7 1.8
0.0 0.0 0.0 0.0 0.0 0.0 0.0 0.0 0.0 0.0 0.0 0.0 0.0 0.0 0.0 0.0 0.0 0.0 2.1 0.0 0.0 0.0 9.5 19.3 0.0 0.0 0.0 0.0 0.0 0.0 0.0 0.2 0.0 3.8 4.6 0.2 0.2 6.0 13.8 7.2 2.0 0.8 1.2 5.2 5.8 1.5 0.5 0.0 0.0 0.0 1.3 0.7 1.6 3.1
0.0 0.0 0.0 0.0 0.0 0.0 0.0 0.0 0.0 0.0 0.0 0.0 0.0 0.0 0.0 0.0 0.0 1.0 3.7 0.1 0.0 0.0 16.2 29.9 8.9 0.0 0.0 0.0 0.0 0.0 0.0 0.0 0.2 3.3 4.0 0.9 1.0 9.9 19.9 9.4 0.4 0.0 0.1 0.3 1.1 3.7 0.5 0.0 1.7 0.6 1.3 1.1 0.6 0.4
0.0 0.0 0.0 0.0 0.0 0.0 0.0 0.0 0.0 0.0 0.0 0.0 0.0 0.0 0.0 0.0 0.0 0.3 0.1 0.1 0.0 0.2 6.8 33.9 15.5 2.1 0.0 0.0 1.5 0.0 0.0 0.3 1.0 1.7 1.4 2.3 2.4 7.0 16.3 0.3 0.0 0.3 0.0 0.0 0.2 0.3 1.9 0.4 0.2 0.8 0.3 0.8 0.7 0.2
0.0 0.0 0.0 0.0 0.0 0.0 0.0 0.0 0.0 0.0 0.0 0.0 0.0 0.0 0.2 0.3 0.4 0.3 0.0 0.1 0.1 2.1 36.4 20.8 12.1 8.0 0.1 0.1 0.4 0.9 0.1 9.7 2.0 6.4 6.2 3.4 5.6 10.8 6.4 3.8 1.3 1.1 3.5 3.0 0.2 0.0 0.0 0.3 0.4 0.4 0.6 1.0 1.7 0.9
0.0 0.0 0.0 0.0 0.0 0.0 0.0 0.0 0.0 0.0 0.0 0.0 0.5 4.1 22.2 1.2 0.1 0.1 0.2 2.4 9.4 19.6 15.4 18.1 4.1 7.2 0.3 1.3 5.7 6.8 7.6 10.5 14.8 8.7 5.9 9.1 6.2 1.5 1.0 1.5 2.7 3.1 3.2 3.3 4.7 4.8 3.1 2.4 1.2 1.1 2.0 2.5 4.3 3.8
0.0 0.0 0.0 0.0 0.0 0.0 0.0 0.0 0.0 0.0 0.0 1.2 13.1 17.5 10.3 0.5 4.6 13.3 34.6 37.5 33.0 39.3 18.5 9.8 7.2 5.2 0.5 6.6 7.7 7.4 14.1 10.5 18.2 6.2 8.1 9.9 4.1 0.9 0.1 0.5 0.3 1.1 2.1 3.2 5.5 6.1 6.7 8.3 7.1 4.9 2.3 2.0 2.0 2.9
0.0 0.0 0.0 0.0 0.0 0.0 0.0 0.0 0.0 5.8 9.8 4.9 5.5 7.4 8.7 14.8 28.9 42.9 35.1 17.7 21.4 21.3 13.2 8.3 2.3 0.8 2.9 4.3 13.1 15.3 19.9 14.2 15.9 3.0 11.5 5.8 1.2 0.4 0.4 0.8 1.1 1.5 2.6 3.7 4.9 7.0 6.2 5.9 5.0 4.4 4.3 4.6 4.3 4.4
0.0 0.0 0.0 0.0 0.0 0.0 0.0 0.0 0.0 0.0 1.1 5.1 13.5 31.6 28.0 24.7 36.5 26.7 14.6 8.4 10.3 5.6 3.9 3.9 4.8 2.9 4.9 7.5 17.9 17.6 24.2 17.5 4.7 13.0 3.1 2.3 0.1 0.3 1.3 1.4 1.1 0.4 1.4 2.2 3.8 4.1 4.3 2.9 2.1 3.6 3.5 3.7 4.1 4.2
0.0 0.0 0.0 0.0 0.0 0.0 0.0 0.0 0.0 0.9 9.7 24.1 39.4 47.5 31.1 21.7 10.0 5.2 4.1 4.1 1.4 3.2 3.2 1.7 5.8 7.6 6.5 12.8 10.9 23.0 6.7 10.0 13.9 6.4 2.3 1.0 1.8 2.2 1.7 1.4 2.4 1.8 2.4 3.9 6.1 5.1 3.6 4.0 3.7 3.3 5.2 5.9 6.2 8.0
0.0 0.0 0.0 0.0 0.0 0.0 0.0 0.0 1.6 4.3 11.5 38.8 33.4 30.4 15.2 6.5 4.5 3.7 2.4 3.0 4.5 4.1 4.9 4.5 5.9 6.6 10.2 19.0 14.5 13.4 19.1 10.6 3.6 3.1 2.1 3.6 4.1 4.4 4.9 4.5 4.8 4.1 5.0 7.0 9.3 7.1 6.6 4.6 4.5 6.0 8.3 7.4 6.7 7.3
0.0 0.0 0.0 0.0 0.0 0.0 0.0 2.3 7.8 6.2 20.3 32.2 29.1 18.0 6.4 3.7 5.0 5.3 4.4 5.9 5.7 5.6 5.4 11.5 15.5 17.8 20.6 20.2 19.7 10.1 9.1 5.6 4.9 6.0 6.4 6.4 5.9 5.8 6.4 8.7 11.3 11.8 12.9 12.2 15.5 17.0 13.6 11.0 11.6 11.9 8.8 9.1 8.8 8.3
0.0 0.0 0.0 0.0 0.0 0.5 1.7 5.9 12.2 35.7 41.5 37.4 17.3 7.4 8.4 9.2 9.4 10.2 8.1 8.6 6.1 10.7 12.9 18.1 27.5 17.2 10.7 14.6 6.7 2.9 4.8 4.8 6.6 7.8 8.4 7.4 8.1 8.6 8.2 8.7 12.7 14.6 17.6 14.7 15.7 16.7 18.9 15.9 9.6 4.8 7.8 9.1 7.4 7.0
0.0 0.0 0.0 0.0 1.4 2.8 8.5 7.7 37.0 44.7 43.3 19.1 8.9 5.4 6.2 7.4 7.7 4.6 5.2 5.4 9.7 11.6 12.1 20.4 13.5 17.6 14.7 9.4 5.2 4.8 5.4 5.0 6.6 8.3 10.7 10.4 9.8 11.0 10.3 11.8 12.2 11.7 12.5 11.4 9.4 7.7 6.3 4.3 4.7 6.6 6.8 5.8 4.5 4.6
0.0 0.0 0.0 0.1 0.9 6.0 39.3 46.8 30.0 42.2 17.0 7.8 5.7 4.7 3.9 4.9 3.3 4.1 4.8 5.8 9.3 7.5 10.4 12.9 19.3 14.9 8.0 5.9 6.3 6.1 6.6 7.4 9.1 9.2 10.3 9.4 8.1 7.5 6.4 5.4 5.0 4.4 5.7 5.2 4.0 5.4 4.4 3.3 4.0 3.2 2.9 1.5 1.2 1.1
0.0 0.0 0.6 1.0 1.2 29.5 47.2 39.6 21.2 14.9 8.7 5.2 4.7 3.7 2.6 5.6 4.6 2.4 2.7 3.0 4.0 6.3 16.1 18.4 10.3 10.1 12.1 11.7 10.6 9.7 10.7 10.6 7.8 5.7 6.4 5.2 3.1 1.5 0.7 0.4 0.4 0.1 0.1 0.4 0.4 0.5 0.4 0.3 0.2 0.3 0.5 0.5 0.5 0.8
2.7 3.7 2.4 1.0 9.7 37.7 34.8 24.7 17.3 9.9 5.6 4.4 4.1 2.9 5.1 3.5 4.4 4.5 4.0 2.0 8.0 16.3 14.6 11.8 11.6 12.4 11.5 11.9 12.2 11.2 10.7 5.5 3.5 2.2 1.9 0.9 0.4 0.2 0.0 0.0 0.0 0.0 0.1 0.0 0.0 0.0 0.2 0.8 0.8 0.0 0.0 0.2 0.3 0.5
8.4 1.8 16.9 5.3 58.3 58.0 44.9 20.3 11.4 7.1 5.7 6.8 4.3 3.8 6.5 6.3 4.8 5.9 7.4 11.0 17.5 12.4 11.8 11.3 10.6 10.8 9.1 9.4 7.7 4.8 1.9 0.7 0.5 0.3 0.2 0.3 0.2 0.0 0.0 0.0 0.1 0.0 0.0 0.4 0.3 0.7 0.6 0.9 1.0 0.6 0.3 0.3 0.3 0.4
1.6 8.5 38.1 43.3 58.7 55.2 41.7 13.0 13.2 9.7 8.5 6.7 5.6 7.2 9.6 8.3 5.1 4.6 12.4 13.6 12.0 11.5 10.3 7.8 7.1 5.1 4.2 3.4 1.4 1.1 0.7 0.2 0.0 0.0 0.0 0.0 0.0 0.0 0.0 0.0 0.0 0.2 0.0 0.2 0.2 0.4 0.5 0.4 0.2 0.3 0.3 0.3 0.4 0.1
2.4 45.9 56.5 57.0 43.9 43.2 27.3 22.5 12.3 6.7 8.4 8.1 9.1 9.5 9.1 7.2 7.4 8.8 10.0 5.7 8.4 10.3 9.4 9.9 7.1 4.1 3.0 2.8 2.8 2.3 1.1 0.6 0.2 0.0 0.4 0.1 0.0 0.0 0.1 0.0 0.0 0.1 0.8 0.2 0.2 0.1 0.3 0.2 0.5 0.4 0.3 0.7 0.7 0.5
88.4 93.3 53.9 56.4 33.4 19.9 11.5 8.9 6.3 4.6 3.7 2.7 6.0 7.2 7.7 7.0 8.2 7.9 4.6 5.4 7.5 8.7 10.2 9.7 7.9 5.7 4.6 3.3 2.4 1.7 1.9 1.7 1.7 0.5 1.8 1.3 0.3 0.1 0.1 0.1 0.1 0.0 0.0 0.2 0.5 0.7 0.5 0.4 0.9 0.8 0.8 1.9 2.6 2.4
76.6 47.0 36.7 16.1 8.1 3.3 2.5 1.3 1.2 1.3 1.5 2.4 4.7 4.7 5.8 6.0 7.4 7.5 3.9 5.1 8.4 10.6 10.1 8.1 5.6 3.4 2.5 2.2 2.2 2.1 1.5 1.2 1.3 2.2 1.8 2.8 1.9 2.5 1.1 0.8 0.6 0.2 0.2 1.9 3.1 3.0 1.6 1.5 1.2 0.9 1.0 1.8 3.0 3.3
44.5 25.8 9.8 2.4 0.3 0.0 0.4 0.3 0.5 0.6 2.6 4.0 3.9 4.0 4.5 11.1 6.7 4.3 4.5 6.4 7.7 9.9 9.2 7.6 3.9 3.1 2.6 2.9 3.4 3.4 3.0 2.7 2.3 2.6 1.9 4.3 3.3 1.7 1.8 4.8 5.3 2.6 4.2 4.3 4.7 5.3 5.6 4.6 3.4 2.7 2.5 3.1 2.7 4.8
10.2 2.1 0.9 1.0 0.6 0.1 0.7 1.3 0.7 2.5 2.8 3.0 1.9 4.0 4.8 4.2 3.4 4.0 5.9 7.6 9.3 8.9 8.3 8.2 6.3 4.7 4.3 4.1 4.1 4.7 5.0 4.6 4.5 4.1 5.6 6.2 5.4 4.2 3.2 5.9 7.4 8.0 8.6 7.2 8.5 9.0 9.1 8.5 6.9 5.4 5.7 6.1 4.7 4.0
4.9 2.9 0.6 1.2 1.5 1.3 1.2 1.6 1.8 1.6 1.1 1.9 2.6 2.4 3.4 2.5 3.4 4.5 5.6 7.8 8.7 8.1 8.0 7.7 7.3 6.3 5.9 5.6 6.1 7.0 6.6 5.9 4.6 4.1 3.7 3.5 4.5 5.7 4.3 5.3 7.6 8.9 7.8 7.5 4.4 8.3 12.2 12.4 11.9 12.0 8.9 7.6 6.0 6.5
3.4 2.1 1.8 1.5 1.4 1.9 2.0 1.4 1.2 1.7 1.2 1.3 0.7 0.5 0.5 2.3 4.2 5.3 5.5 6.9 7.9 8.1 8.8 8.4 7.4 7.2 7.2 6.7 6.8 7.6 7.3 7.0 6.0 5.3 9.1 6.4 3.3 5.0 8.0 9.5 9.1 9.0 10.9 10.9 9.1 7.9 6.8 8.8 8.4 8.2 9.5 9.0 8.5 8.0
2.6 1.9 2.0 2.3 2.8 3.3 3.5 3.5 3.2 1.9 1.3 1.0 0.8 0.6 1.3 1.4 4.1 5.1 5.5 6.3 7.4 8.0 8.0 8.2 8.3 8.5 7.8 7.6 8.1 7.2 7.9 7.5 7.6 7.0 7.5 11.3 9.5 9.9 10.4 10.9 11.6 14.2 13.8 11.2 9.7 9.2 8.2 8.3 7.9 7.9 7.7 8.0 6.9 6.3
3.7 3.0 1.7 2.3 4.4 5.6 5.5 5.1 5.0 4.1 3.9 3.3 3.3 2.8 3.1 2.4 1.8 3.6 5.3 5.7 6.1 6.8 7.5 7.5 6.9 7.0 7.0 7.5 7.4 7.2 6.6 8.1 8.7 9.8 11.6 12.3 10.6 10.1 9.4 11.5 12.6 15.0 14.2 13.1 11.2 10.7 10.6 9.8 10.9 9.9 9.7 8.4 7.5 6.9
6.9 4.5 3.5 2.8 4.6 5.4 5.4 4.3 6.8 6.6 5.7 4.9 4.3 3.3 2.8 2.2 2.7 3.5 4.7 4.7 3.9 5.8 6.2 6.6 7.3 6.6 8.4 7.9 7.6 7.3 7.2 9.9 8.6 10.7 14.8 15.4 14.4 16.5 17.8 15.7 12.4 12.1 12.4 11.8 11.2 12.1 12.6 12.2 10.9 9.6 9.0 7.9 7.9 7.1

GFSWCAN_prec_kuchsnow_273.txt.gz
Snowfall_Accumulation
0.0 0.0 0.0 0.0 0.0 0.0 0.0 0.0 0.0 0.0 0.0 0.0 0.0 0.0 0.0 0.0 0.0 0.0 0.0 0.0 0.0 3.8 0.4 0.0 0.3 0.3 0.4 0.7 3.1 0.4 1.9 0.2 0.3 3.0 3.7 1.8 1.0 1.4 0.9 0.6 0.9 1.9 2.5 0.8 1.1 3.3 2.7 0.0 0.0 1.3 2.3 0.4 0.3 1.0
0.0 0.0 0.0 0.0 0.0 0.0 0.0 0.0 0.0 0.0 0.0 0.0 0.0 0.0 0.0 0.0 0.0 0.0 0.0 0.0 0.0 1.7 2.3 0.6 0.2 0.1 0.1 0.1 0.9 0.9 1.6 2.0 2.7 4.5 3.1 4.0 4.5 2.2 1.2 3.1 0.0 3.3 3.2 5.5 4.4 1.9 0.0 0.0 0.4 0.6 0.8 2.5 1.1 1.8
0.0 0.0 0.0 0.0 0.0 0.0 0.0 0.0 0.0 0.0 0.0 0.0 0.0 0.0 0.0 0.0 0.0 0.0 0.0 0.4 0.5 3.7 2.2 1.1 0.4 0.1 0.0 0.0 0.0 2.2 0.0 0.5 1.3 1.9 6.3 7.2 6.5 2.5 3.7 2.0 1.4 0.0 0.7 1.7 1.7 0.0 0.0 0.0 0.0 0.0 0.0 0.4 0.3 0.8
0.0 0.0 0.0 0.0 0.0 0.0 0.0 0.0 0.0 0.0 0.0 0.0 0.0 0.0 0.0 0.0 0.0 0.0 0.1 1.0 1.3 3.3 15.4 1.0 0.0 0.0 0.0 0.0 0.0 0.0 0.2 0.1 0.1 0.4 8.2 12.1 8.1 1.2 1.2 1.6 2.6 2.6 0.7 1.0 0.9 0.0 0.0 0.0 0.0 0.0 0.0 0.0 0.1 0.1
0.0 0.0 0.0 0.0 0.0 0.0 0.0 0.0 0.0 0.0 0.0 0.0 0.0 0.0 0.0 0.0 0.0 0.0 1.6 2.0 1.1 2.4 8.8 1.5 0.1 0.0 0.0 0.0 0.0 0.0 0.0 0.2 0.6 3.2 8.2 7.3 0.3 2.6 1.8 3.2 6.1 4.5 7.4 8.4 4.3 0.2 5.7 0.8 0.1 0.0 1.4 0.6 0.7 1.8
0.0 0.0 0.0 0.0 0.0 0.0 0.0 0.0 0.0 0.0 0.0 0.0 0.0 0.0 0.0 0.0 0.0 1.3 4.8 1.2 0.5 0.3 10.4 19.9 0.1 0.0 0.0 0.0 0.0 0.0 0.0 0.2 0.0 3.8 4.6 0.2 0.2 6.0 13.8 7.2 2.0 0.8 1.2 5.2 5.8 1.5 0.5 0.0 0.0 0.0 1.3 0.7 1.6 3.1
0.0 0.0 0.0 0.0 0.0 0.0 0.0 0.0 0.0 0.0 0.0 0.0 0.0 0.0 0.0 0.0 0.0 3.0 5.5 0.4 0.1 0.3 16.8 30.4 8.9 0.0 0.0 0.0 0.0 0.0 0.0 0.0 0.2 3.3 4.0 0.9 1.0 9.9 19.9 9.4 0.4 0.0 0.1 0.3 1.1 3.7 0.5 0.0 1.7 0.6 1.3 1.1 0.6 0.4
0.0 0.0 0.0 0.0 0.0 0.0 0.0 0.0 0.0 0.0 0.0 0.0 0.0 0.0 0.0 0.0 0.8 1.8 0.9 0.3 0.3 0.6 6.9 34.1 15.5 2.1 0.0 0.0 1.5 0.0 0.0 0.3 1.0 1.8 1.4 2.3 2.4 7.0 16.4 0.3 0.0 0.3 0.0 0.0 0.2 0.3 1.9 0.4 0.2 0.8 0.3 0.8 0.7 0.2
0.0 0.0 0.0 0.0 0.0 0.0 0.0 0.0 0.0 0.0 0.0 0.0 0.0 0.0 2.0 2.6 2.8 1.7 0.3 0.3 0.4 2.3 36.5 20.8 12.1 8.1 0.1 0.1 0.4 0.9 0.1 9.7 2.0 6.5 6.2 3.4 5.6 10.8 6.4 3.8 1.3 1.1 3.5 3.0 0.2 0.0 0.0 0.3 0.4 0.4 0.6 1.0 1.7 0.9
0.0 0.0 0.0 0.0 0.0 0.0 0.0 0.0 0.0 0.0 0.0 0.0 1.5 7.6 26.9 3.9 0.5 0.6 1.1 3.4 10.0 19.9 15.5 18.1 4.1 7.2 0.3 1.3 5.7 6.8 7.6 10.5 14.8 8.7 5.9 9.1 6.2 1.5 1.0 1.5 2.7 3.1 3.2 3.3 4.7 4.8 3.1 2.4 1.2 1.1 2.0 2.5 4.3 3.8
0.0 0.0 0.0 0.0 0.0 0.0 0.0 0.0 0.0 0.0 0.0 2.7 16.2 21.4 14.0 1.8 6.5 15.7 37.0 38.7 33.2 39.3 18.5 9.8 7.2 5.2 0.5 6.6 7.7 7.4 14.1 10.5 18.2 6.2 8.1 9.9 4.1 0.9 0.1 0.5 0.3 1.1 2.1 3.2 5.5 6.1 6.7 8.3 7.1 4.9 2.3 2.0 2.0 2.9
0.0 0.0 0.0 0.0 0.0 0.0 0.0 0.0 0.0 6.1 10.5 5.4 7.1 9.7 11.7 18.6 32.8 46.2 36.6 18.0 21.4 21.3 13.2 8.3 2.3 0.8 2.9 4.3 13.1 15.3 19.9 14.2 15.9 3.0 11.5 5.8 1.2 0.4 0.4 0.8 1.1 1.5 2.6 3.7 4.9 7.0 6.2 5.9 5.0 4.4 4.3 4.6 4.3 4.4
0.0 0.0 0.0 0.0 0.0 0.0 0.0 0.0 0.0 0.0 1.7 7.7 16.8 35.5 31.8 28.1 39.4 28.1 14.8 8.4 10.3 5.6 4.0 3.9 4.8 2.9 4.9 7.5 17.9 17.6 24.2 17.5 4.7 13.0 3.1 2.3 0.1 0.3 1.3 1.4 1.1 0.4 1.4 2.2 3.8 4.1 4.3 2.9 2.1 3.6 3.5 3.7 4.1 4.2
0.0 0.0 0.0 0.0 0.0 0.0 0.0 0.0 0.0 0.9 12.7 30.7 43.5 51.0 32.8 23.7 10.2 5.2 4.1 4.1 1.4 3.2 3.2 1.7 5.9 7.6 6.5 12.8 10.9 23.0 6.7 10.0 13.9 6.4 2.3 1.0 1.8 2.2 1.7 1.4 2.4 1.8 2.4 3.9 6.1 5.1 3.6 4.0 3.7 3.3 5.2 5.9 6.2 8.0
0.0 0.0 0.0 0.0 0.0 0.0 0.0 0.0 1.6 5.9 17.1 45.0 36.8 32.3 16.2 6.7 4.5 3.7 2.4 3.0 4.6 4.1 4.9 4.5 5.9 6.6 10.2 19.0 14.5 13.4 19.1 10.6 3.6 3.1 2.1 3.6 4.1 4.4 4.9 4.5 4.8 4.1 5.0 7.0 9.3 7.1 6.6 4.6 4.5 6.0 8.3 7.4 6.7 7.3
0.0 0.0 0.0 0.0 0.0 0.0 0.1 3.1 10.4 11.2 26.1 37.0 32.1 19.3 6.4 3.7 5.4 5.7 4.6 6.4 5.9 5.7 5.4 11.5 15.5 17.8 20.6 20.2 19.7 10.1 9.1 5.6 4.9 6.0 6.4 6.4 5.9 5.8 6.4 8.7 11.3 11.8 12.9 12.2 15.5 17.0 13.6 11.0 11.6 11.9 8.8 9.1 8.8 8.3
0.0 0.0 0.0 0.0 0.0 0.8 1.7 9.1 18.1 41.7 45.6 40.0 17.8 7.4 8.9 9.5 10.1 11.2 8.7 9.2 6.3 10.7 12.9 18.1 27.5 17.2 10.7 14.6 6.7 2.9 4.8 4.8 6.6 7.8 8.4 7.4 8.1 8.6 8.2 8.7 12.7 14.6 17.6 14.7 15.7 16.7 18.9 15.9 9.6 4.8 7.8 9.1 7.4 7.0
0.0 0.0 0.0 0.0 2.0 4.4 12.9 12.2 41.3 47.4 44.8 19.3 8.9 6.1 6.9 7.9 8.3 5.2 5.6 5.6 9.7 11.7 12.2 20.4 13.5 17.6 14.7 9.4 5.2 4.8 5.4 5.0 6.6 8.3 10.7 10.4 9.8 11.0 10.3 11.8 12.2 11.7 12.5 11.4 9.4 7.7 6.3 4.3 4.7 6.6 6.8 5.8 4.5 4.6
0.0 0.0 0.0 0.1 1.0 8.6 43.4 49.9 31.4 42.8 17.0 7.8 7.4 6.3 5.1 5.8 4.3 4.6 5.0 5.8 9.4 7.5 10.4 12.9 19.3 14.9 8.0 5.9 6.3 6.1 6.6 7.4 9.1 9.2 10.3 9.4 8.1 7.5 6.4 5.4 5.0 4.4 5.7 5.2 4.0 5.4 4.4 3.3 4.0 3.2 2.9 1.5 1.2 1.1
0.0 0.0 0.6 2.3 3.4 32.5 49.9 41.4 22.1 15.4 9.3 7.5 6.8 5.5 3.7 6.5 5.2 2.6 2.7 3.0 4.0 6.3 16.1 18.4 10.3 10.1 12.1 11.7 10.6 9.7 10.7 10.6 7.8 5.7 6.4 5.2 3.1 1.5 0.7 0.4 0.4 0.1 0.1 0.4 0.4 0.5 0.4 0.3 0.2 0.3 0.5 0.5 0.6 0.8
5.6 6.5 4.5 2.8 12.1 39.7 36.5 26.0 18.2 11.4 7.3 6.3 6.0 4.1 5.9 4.3 4.5 4.5 4.0 2.0 8.0 16.3 14.6 11.8 11.6 12.4 11.5 11.9 12.2 11.2 10.7 5.5 3.5 2.2 1.9 0.9 0.4 0.2 0.0 0.0 0.0 0.0 0.1 0.0 0.0 0.0 0.2 0.8 0.8 0.0 0.0 0.2 0.3 0.5
10.6 2.7 19.2 7.7 61.7 60.8 46.5 22.1 12.8 8.3 6.7 8.2 5.5 4.5 7.0 6.7 4.8 5.9 7.4 11.0 17.5 12.4 11.8 11.3 10.6 10.8 9.1 9.4 7.7 4.8 1.9 0.7 0.5 0.3 0.2 0.3 0.2 0.0 0.0 0.0 0.1 0.0 0.0 0.4 0.3 0.7 0.6 0.9 1.0 0.6 0.3 0.3 0.3 0.4
1.9 9.6 40.4 46.3 61.1 56.3 43.2 14.4 14.4 10.7 8.7 7.4 6.3 7.5 9.7 8.4 5.1 4.6 12.4 13.6 12.0 11.5 10.3 7.8 7.1 5.1 4.2 3.4 1.4 1.1 0.7 0.2 0.0 0.0 0.0 0.0 0.0 0.0 0.0 0.0 0.0 0.2 0.0 0.2 0.2 0.4 0.5 0.4 0.2 0.6 0.3 0.3 0.4 0.1
3.3 47.9 58.9 58.3 44.6 44.1 27.7 22.8 12.7 7.0 8.7 8.5 9.4 9.5 9.1 7.2 7.4 8.8 10.0 5.7 8.4 10.3 9.4 9.9 7.1 4.1 3.0 2.8 2.8 2.3 1.1 0.6 0.2 0.0 0.4 0.1 0.0 0.0 0.1 0.0 0.0 0.1 0.8 0.2 0.2 0.1 0.3 0.2 0.5 0.4 0.3 0.7 0.7 0.5
90.0 94.9 54.8 56.8 33.5 19.9 11.9 9.7 7.1 5.0 3.8 2.9 6.0 7.2 7.7 7.0 8.2 7.9 4.6 5.4 7.5 8.7 10.2 9.7 7.9 5.7 4.6 3.3 2.4 1.7 1.9 1.7 1.7 0.5 1.8 1.3 0.3 0.1 0.1 0.1 0.1 0.0 0.0 0.2 0.5 0.7 0.5 0.4 0.9 0.8 0.8 1.9 2.6 2.4
76.6 47.3 36.7 16.1 8.1 3.3 2.5 1.4 1.3 1.3 1.5 2.4 4.7 4.7 5.8 6.0 7.4 7.5 3.9 5.1 8.4 10.6 10.1 8.1 5.6 3.4 2.5 2.2 2.2 2.1 1.5 1.2 1.3 2.2 1.8 2.8 1.9 2.5 1.1 0.8 0.6 0.2 0.2 1.9 3.1 3.0 1.6 1.5 1.2 0.9 1.0 1.8 3.3 3.7
44.5 25.8 9.8 2.4 0.3 0.0 0.4 0.3 0.5 0.6 2.6 4.0 3.9 4.0 4.5 11.1 6.7 4.3 4.5 6.4 7.7 9.9 9.2 7.6 3.9 3.1 2.6 2.9 3.4 3.4 3.0 2.7 2.3 2.6 1.9 4.3 3.3 1.7 1.8 4.8 5.3 2.6 4.2 4.3 4.7 5.3 5.6 4.6 3.4 2.7 2.6 3.2 2.7 4.9
10.2 2.1 0.9 1.0 0.6 0.1 0.7 1.3 0.7 2.5 2.8 3.0 1.9 4.0 4.8 4.2 3.4 4.0 5.9 7.6 9.3 8.9 8.3 8.2 6.3 4.7 4.3 4.1 4.1 4.7 5.0 4.6 4.5 4.1 5.6 6.2 5.4 4.2 3.2 5.9 7.4 8.0 8.6 7.2 8.5 9.0 9.1 8.5 6.9 5.4 5.8 6.2 4.8 4.1
4.9 2.9 0.6 1.2 1.5 1.3 1.2 1.6 1.8 1.6 1.1 1.9 2.6 2.4 3.4 2.5 3.4 4.5 5.6 7.8 8.7 8.1 8.0 7.7 7.3 6.3 5.9 5.6 6.1 7.0 6.6 5.9 4.6 4.1 3.7 3.5 4.5 5.7 4.3 5.3 7.6 8.9 7.8 7.5 4.5 8.5 12.4 12.4 11.9 12.0 9.1 7.7 6.1 6.5
3.4 2.1 1.8 1.5 1.4 1.9 2.0 1.4 1.2 1.7 1.2 1.3 0.7 0.5 0.5 2.3 4.2 5.3 5.5 6.9 7.9 8.1 8.8 8.4 7.4 7.2 7.2 6.7 6.8 7.6 7.3 7.0 6.0 5.3 9.1 6.4 3.3 5.0 8.0 9.5 9.1 9.0 10.9 10.9 9.1 7.9 6.8 8.8 8.4 8.7 9.5 9.0 8.5 8.2
2.6 1.9 2.0 2.3 2.8 3.3 3.5 3.5 3.2 1.9 1.3 1.0 0.8 0.6 1.3 1.4 4.1 5.1 5.5 6.3 7.4 8.0 8.0 8.2 8.3 8.5 7.8 7.6 8.1 7.2 7.9 7.5 7.6 7.0 7.5 11.3 9.5 9.9 10.4 10.9 11.6 14.2 13.8 11.2 9.7 9.2 8.2 8.3 7.9 7.9 7.7 8.0 6.9 6.4
3.7 3.0 1.7 2.3 4.4 5.6 5.5 5.1 5.0 4.1 3.9 3.3 3.3 2.8 3.1 2.4 1.8 3.6 5.3 5.7 6.1 6.8 7.5 7.5 6.9 7.0 7.0 7.5 7.4 7.2 6.6 8.1 8.7 9.8 11.6 12.3 10.6 10.1 9.4 11.5 12.6 15.0 14.2 13.1 11.2 10.7 10.6 9.8 10.9 9.9 9.7 8.4 7.5 6.9
6.9 4.5 3.5 2.8 4.6 5.4 5.4 4.3 6.8 6.6 5.7 4.9 4.3 3.3 2.8 2.2 2.7 3.5 4.7 4.7 3.9 5.8 6.2 6.6 7.3 6.6 8.4 7.9 7.6 7.3 7.2 9.9 8.6 10.7 14.8 15.4 14.4 16.5 17.8 15.7 12.4 12.1 12.4 11.8 11.2 12.1 12.6 12.2 10.9 9.6 9.0 7.9 7.9 7.1